[[{"header":{"parameterUnit":"m.s-1","parameterCategory":1,"la1":30.2991,"la2":30.254,"lo1":-89.0895,"lo2":-89.0444,"dy":0.0017,"dx":0.0017,"nx":28,"ny":28,"refTime":"2026-01-08T03:00:00:Z","depth":0,"parameterNumber":2,"parameterNumberName":"U-component_of_WINDS"},"data":[0,0,0,0,0,0,0,0,0,0,0,0,0,0,0,0,0,0,0,0,0,0,0,0,0,0,0,0,0,0,0,0,0,0,0,0,0,0,0,0,0,0,0,0,0,0,0,0,0,0,0,0,0,0,0,0,0,0,-1.6211,-1.6211,0,-1.6239,-1.6239,-1.6239,-1.626,-1.626,-1.6261,-1.6261,-1.629,-1.629,-1.6291,0,0,0,0,0,0,0,0,0,0,0,0,0,-1.6176,-1.6177,-1.6211,-1.6211,-1.6212,-1.6239,-1.6239,-1.6239,-1.626,-1.626,-1.6261,-1.6261,-1.6289,-1.629,-1.6291,0,0,0,0,0,0,0,0,0,0,0,0,0,-1.6196,-1.6177,-1.6211,-1.6225,-1.6227,-1.6239,-1.6239,-1.624,-1.626,-1.626,-1.6261,-1.6261,-1.6289,-1.629,-1.6291,-1.6291,0,0,-1.6294,-1.6294,0,0,0,0,0,0,0,0,-1.6195,-1.6198,-1.6223,-1.6224,-1.6226,-1.6246,-1.6237,-1.6257,-1.626,-1.6248,-1.6261,-1.6261,-1.6275,-1.6277,-1.6282,-1.6292,-1.6293,-1.6294,-1.6294,-1.6295,-1.6295,0,0,0,0,0,0,0,-1.6194,-1.6196,-1.6222,-1.6223,-1.6225,-1.623,-1.6234,-1.6241,-1.6259,-1.6249,-1.625,-1.6253,-1.6276,-1.6281,-1.6283,-1.6294,-1.6294,-1.6294,-1.6295,-1.6295,-1.6305,-1.6304,0,0,0,0,0,0,-1.619,-1.6195,-1.6221,-1.6223,-1.6211,-1.6231,-1.6234,-1.624,-1.6259,-1.6263,-1.6253,-1.6254,-1.6279,-1.6281,-1.6284,-1.6284,-1.6295,-1.6295,-1.6296,-1.6305,-1.6305,-1.6304,0,0,0,0,0,0,-1.6189,-1.6192,-1.622,-1.6209,-1.6213,-1.6231,-1.6237,-1.624,-1.6245,-1.6263,-1.6266,-1.6254,-1.6279,-1.6282,-1.6289,-1.6285,-1.6296,-1.6297,-1.6305,-1.6305,-1.6305,-1.6285,0,0,0,0,0,0,-1.6188,-1.6192,-1.6192,-1.6209,-1.6214,-1.6224,-1.6237,-1.624,-1.6246,-1.6248,-1.6265,-1.6268,-1.628,-1.6287,-1.6289,-1.6287,-1.6297,-1.6306,-1.6305,-1.6305,-1.6286,-1.6284,-1.6282,0,0,0,0,0,-1.6187,-1.6186,-1.6192,-1.6195,-1.6214,-1.6224,-1.6227,-1.624,-1.6246,-1.6246,-1.6257,-1.6267,-1.6285,-1.6288,-1.629,-1.6288,-1.6306,-1.6305,-1.6305,-1.6287,-1.6285,-1.6283,0,0,0,0,0,0,-1.6168,-1.6188,-1.6195,-1.62,-1.621,-1.6228,-1.6228,-1.6237,-1.6247,-1.6248,-1.6265,-1.6268,-1.6273,-1.6281,-1.6283,-1.6288,-1.6297,-1.6297,-1.6283,-1.628,-1.6279,-1.6276,-1.6298,0,0,0,0,0,-1.6164,-1.617,-1.6188,-1.619,-1.6195,-1.6211,-1.6215,-1.6225,-1.6236,-1.6241,-1.6253,-1.6264,-1.6272,-1.6277,-1.6285,-1.6288,-1.6291,-1.6287,-1.6286,-1.6284,-1.6283,-1.6285,-1.6283,-1.6302,-1.6302,-1.6302,0,0,-1.6156,-1.6168,-1.6171,-1.6186,-1.6195,-1.6201,-1.6214,-1.622,-1.6225,-1.6242,-1.6248,-1.6257,-1.6271,-1.6275,-1.6277,-1.6282,-1.6279,-1.6283,-1.6282,-1.6282,-1.6284,-1.6282,-1.628,-1.6302,-1.6302,-1.6302,0,0,-1.6145,-1.6155,-1.6157,-1.6166,-1.618,-1.619,-1.6191,-1.6207,-1.6214,-1.622,-1.6233,-1.6239,-1.6253,-1.6261,-1.6268,-1.6259,-1.6269,-1.6262,-1.6252,-1.6253,-1.6251,-1.625,-1.6246,-1.6245,-1.6261,-1.6261,-1.6261,0,-1.6134,-1.6143,-1.6158,-1.6163,-1.6169,-1.6184,-1.6187,-1.6195,-1.621,-1.6214,-1.6219,-1.6236,-1.6246,-1.6253,-1.625,-1.6255,-1.6256,-1.6259,-1.625,-1.6249,-1.6248,-1.6245,-1.6243,-1.626,-1.626,-1.626,-1.626,0,-1.6128,-1.6135,-1.6135,-1.6149,-1.6155,-1.6159,-1.6174,-1.6179,-1.6187,-1.6197,-1.6204,-1.6216,-1.6227,-1.623,-1.6239,-1.6237,-1.6239,-1.6247,-1.6256,-1.6245,-1.6242,-1.6241,-1.6259,-1.6259,-1.6259,-1.626,0,0,-1.6106,-1.6128,-1.6127,-1.6134,-1.615,-1.6155,-1.6159,-1.6169,-1.6173,-1.6183,-1.6187,-1.6198,-1.6205,-1.6212,-1.6222,-1.6223,-1.6215,-1.6231,-1.6231,-1.6227,-1.6213,-1.6206,-1.6205,-1.6221,-1.6221,-1.6221,-1.6212,0,-1.6097,-1.6105,-1.6118,-1.6122,-1.6127,-1.6142,-1.6146,-1.6156,-1.6165,-1.6171,-1.6182,-1.6189,-1.6198,-1.6203,-1.6204,-1.6215,-1.6212,-1.6217,-1.6225,-1.6225,-1.622,-1.6203,-1.6197,-1.6187,-1.6211,-1.6211,-1.621,0,-1.6087,-1.6096,-1.61,-1.6115,-1.6118,-1.6121,-1.6131,-1.6137,-1.6149,-1.6155,-1.6163,-1.6174,-1.6179,-1.6187,-1.6194,-1.6197,-1.6201,-1.6207,-1.6207,-1.6208,-1.6216,-1.6203,-1.6184,-1.6182,-1.6209,-1.6209,-1.6209,0,-1.6069,-1.6082,-1.6086,-1.6091,-1.6109,-1.6111,-1.6118,-1.613,-1.6135,-1.6144,-1.6148,-1.6158,-1.6163,-1.617,-1.6183,-1.6188,-1.6189,-1.6198,-1.6194,-1.6194,-1.6193,-1.6193,-1.6174,-1.6197,-1.6197,-1.6197,-1.6197,0,-1.6057,-1.6059,-1.6078,-1.6081,-1.6083,-1.6098,-1.61,-1.6109,-1.6119,-1.6124,-1.6138,-1.6141,-1.6159,-1.6165,-1.6175,-1.6179,-1.6182,-1.6187,-1.619,-1.6185,-1.6184,-1.6188,-1.6188,-1.6197,-1.6197,-1.6197,-1.6197,0,-1.6038,-1.6051,-1.6056,-1.6072,-1.6076,-1.6077,-1.6091,-1.6093,-1.6104,-1.6109,-1.6111,-1.6127,-1.6134,-1.6148,-1.616,-1.6167,-1.6168,-1.6174,-1.6164,-1.6166,-1.616,-1.616,-1.6142,-1.614,-1.6165,-1.6165,-1.6165,0,-1.6029,-1.603,-1.6046,-1.605,-1.6057,-1.6063,-1.6068,-1.6083,-1.6087,-1.61,-1.6102,-1.611,-1.6118,-1.6129,-1.6142,-1.615,-1.6155,-1.6149,-1.6157,-1.6152,-1.6154,-1.6154,-1.6154,-1.6146,-1.6146,-1.6146,-1.6146,0,-1.6011,-1.6018,-1.6024,-1.6033,-1.6039,-1.6047,-1.6055,-1.6057,-1.6074,-1.6079,-1.6086,-1.6092,-1.6104,-1.6112,-1.6122,-1.613,-1.614,-1.6143,-1.6142,-1.6137,-1.6132,-1.6134,-1.6158,-1.6143,-1.6143,-1.6143,-1.6144,-1.6144,-1.5996,-1.5998,-1.6009,-1.6016,-1.6024,-1.6032,-1.6035,-1.6045,-1.6051,-1.6061,-1.607,-1.6077,-1.6088,-1.6103,-1.611,-1.6116,-1.6121,-1.612,-1.612,-1.6119,-1.6117,-1.6131,-1.6118,-1.6118,-1.6118,-1.6118,-1.6118,0,-1.5979,-1.5987,-1.5993,-1.6004,-1.6009,-1.6018,-1.6028,-1.6032,-1.6037,-1.6047,-1.6054,-1.6062,-1.607,-1.6083,-1.6092,-1.6094,-1.6099,-1.6096,-1.6095,-1.6097,-1.6113,-1.6112,-1.6092,-1.6092,-1.6092,-1.6092,-1.6092,-1.6092,-1.5971,-1.5974,-1.5981,-1.5988,-1.5996,-1.6002,-1.6007,-1.6014,-1.6021,-1.603,-1.6036,-1.6045,-1.6056,-1.6065,-1.6073,-1.6077,-1.6079,-1.6074,-1.6079,-1.6093,-1.6096,-1.6098,-1.6097,-1.6075,-1.6075,-1.6063,-1.6063,-1.6063]},{"header":{"parameterUnit":"m.s-1","parameterCategory":1,"la1":30.2991,"la2":30.254,"lo1":-89.0895,"lo2":-89.0444,"dy":0.0017,"dx":0.0017,"nx":28,"ny":28,"refTime":"2026-01-08T03:00:00:Z","depth":0,"parameterNumber":3,"parameterNumberName":"V-component_of_WINDS"},"data":[0,0,0,0,0,0,0,0,0,0,0,0,0,0,0,0,0,0,0,0,0,0,0,0,0,0,0,0,0,0,0,0,0,0,0,0,0,0,0,0,0,0,0,0,0,0,0,0,0,0,0,0,0,0,0,0,0,0,3.5991,3.5992,0,3.6099,3.61,3.6102,3.6109,3.6107,3.6106,3.6105,3.6212,3.6216,3.622,0,0,0,0,0,0,0,0,0,0,0,0,0,3.5788,3.5792,3.599,3.5992,3.5993,3.6099,3.61,3.6102,3.6109,3.6107,3.6106,3.6105,3.6211,3.6216,3.622,0,0,0,0,0,0,0,0,0,0,0,0,0,3.5884,3.5793,3.599,3.6009,3.6012,3.6099,3.6101,3.6102,3.6109,3.6107,3.6106,3.6104,3.6209,3.6215,3.6221,3.6294,0,0,3.6239,3.6242,0,0,0,0,0,0,0,0,3.5879,3.5892,3.6005,3.6008,3.6012,3.6089,3.6069,3.6167,3.611,3.6072,3.6105,3.6103,3.6172,3.6181,3.6205,3.6299,3.6304,3.624,3.6244,3.6246,3.6248,0,0,0,0,0,0,0,3.5872,3.5887,3.6033,3.6007,3.6011,3.6013,3.6024,3.6087,3.6131,3.6075,3.6076,3.6089,3.6174,3.62,3.6208,3.6306,3.624,3.6245,3.6249,3.6251,3.6469,3.6472,0,0,0,0,0,0,3.5862,3.5881,3.603,3.6037,3.594,3.6018,3.6031,3.6066,3.613,3.6139,3.6091,3.6089,3.619,3.6201,3.6212,3.6305,3.6246,3.6252,3.6255,3.6467,3.647,3.6472,0,0,0,0,0,0,3.5858,3.5875,3.6025,3.5959,3.5979,3.6023,3.6062,3.6069,3.6095,3.6142,3.615,3.6109,3.6189,3.6203,3.6275,3.6308,3.6254,3.626,3.6465,3.6468,3.6471,3.6489,0,0,0,0,0,0,3.5852,3.5874,3.5902,3.596,3.5982,3.6087,3.6064,3.6072,3.6106,3.6105,3.6161,3.6169,3.6189,3.6266,3.6281,3.6316,3.6264,3.6462,3.6466,3.647,3.6486,3.6493,3.6499,0,0,0,0,0,3.5845,3.5901,3.5903,3.5921,3.6019,3.6089,3.6102,3.6125,3.6108,3.6137,3.6168,3.6167,3.6302,3.6273,3.629,3.6327,3.646,3.6465,3.647,3.6483,3.6492,3.6499,0,0,0,0,0,0,3.5843,3.5909,3.5912,3.5989,3.6034,3.609,3.6127,3.6132,3.6181,3.6178,3.6204,3.6216,3.6288,3.6315,3.6281,3.6404,3.6379,3.6388,3.6384,3.6392,3.6398,3.6391,3.6269,0,0,0,0,0,3.5852,3.5905,3.5959,3.6021,3.6044,3.6082,3.6113,3.6128,3.6175,3.6193,3.6229,3.6274,3.6327,3.6361,3.6412,3.649,3.6504,3.6524,3.653,3.6535,3.6543,3.659,3.66,3.6489,3.6489,3.6489,0,0,3.587,3.5913,3.5944,3.6022,3.6059,3.6113,3.6097,3.6154,3.6195,3.6201,3.6272,3.63,3.6352,3.6429,3.6464,3.6453,3.6577,3.6542,3.6546,3.655,3.6596,3.6606,3.6616,3.6492,3.6491,3.6491,0,0,3.5932,3.5968,3.6026,3.6064,3.6121,3.6146,3.616,3.6217,3.6237,3.6309,3.6316,3.6364,3.6454,3.6492,3.6523,3.6604,3.6605,3.6619,3.6653,3.6698,3.6707,3.6715,3.6746,3.6756,3.6626,3.6626,3.6626,0,3.5947,3.6029,3.6055,3.6114,3.6149,3.616,3.6219,3.6254,3.6324,3.6348,3.6335,3.6451,3.6486,3.6573,3.6594,3.6617,3.6635,3.6613,3.6704,3.6712,3.672,3.675,3.6761,3.6628,3.6628,3.6627,3.6627,0,3.6047,3.6104,3.6144,3.6214,3.6254,3.6312,3.6347,3.6384,3.6396,3.6424,3.6498,3.6542,3.6604,3.6625,3.6636,3.6715,3.6707,3.6699,3.6675,3.6732,3.676,3.6772,3.663,3.6629,3.6629,3.6629,0,0,3.6108,3.6195,3.6209,3.6243,3.6307,3.6352,3.6412,3.6475,3.6507,3.6556,3.6608,3.6686,3.668,3.6715,3.673,3.677,3.6835,3.6758,3.6759,3.6772,3.6928,3.6935,3.6947,3.6837,3.6839,3.6841,3.6924,0,3.6178,3.6286,3.6313,3.6406,3.6461,3.6474,3.6527,3.6572,3.66,3.6651,3.6681,3.6737,3.6724,3.6746,3.6785,3.6818,3.6867,3.6813,3.6886,3.6888,3.6874,3.6962,3.6968,3.7045,3.6935,3.6937,3.6939,0,3.6273,3.6327,3.6426,3.6488,3.6512,3.6559,3.6621,3.6669,3.6722,3.6739,3.6781,3.6794,3.6858,3.6831,3.6921,3.6883,3.6915,3.6936,3.694,3.6948,3.6917,3.6974,3.707,3.7082,3.6956,3.6955,3.6953,0,3.6311,3.6408,3.6481,3.6509,3.6582,3.6615,3.6647,3.6699,3.6736,3.679,3.6815,3.6874,3.6907,3.6953,3.6981,3.6959,3.707,3.7044,3.7087,3.7086,3.7109,3.7108,3.7213,3.7128,3.7128,3.7127,3.7127,0,3.6387,3.6448,3.65,3.6544,3.6614,3.6644,3.6712,3.6743,3.679,3.6842,3.6856,3.6904,3.6939,3.6992,3.7014,3.7087,3.7101,3.7117,3.7123,3.7117,3.7115,3.7138,3.7134,3.7131,3.713,3.7129,3.7129,0,3.644,3.6477,3.6558,3.6622,3.664,3.6688,3.6743,3.6788,3.6817,3.6883,3.69,3.6946,3.701,3.7044,3.7122,3.7138,3.722,3.7221,3.7202,3.7205,3.7246,3.7243,3.7371,3.7391,3.7291,3.7292,3.7293,0,3.6487,3.6535,3.6605,3.6642,3.6675,3.6734,3.6773,3.6806,3.6846,3.6913,3.695,3.7015,3.7069,3.717,3.721,3.7272,3.7276,3.7317,3.7285,3.7279,3.7279,3.7276,3.7283,3.7322,3.7323,3.7324,3.7325,0,3.6567,3.6584,3.664,3.6705,3.6752,3.6804,3.6855,3.6884,3.6926,3.697,3.7037,3.7079,3.7162,3.7227,3.7293,3.7325,3.7333,3.7335,3.7348,3.7343,3.7331,3.7341,3.7219,3.7332,3.7331,3.733,3.733,3.733,3.6619,3.6664,3.6722,3.6786,3.6828,3.6877,3.6923,3.696,3.7017,3.7089,3.7104,3.7176,3.7231,3.7319,3.7354,3.7411,3.7402,3.7421,3.7426,3.7431,3.7434,3.7322,3.7422,3.7422,3.7422,3.7422,3.7422,0,3.6702,3.6741,3.6799,3.6872,3.6923,3.6928,3.6986,3.7028,3.7091,3.7143,3.7197,3.7275,3.734,3.7386,3.7452,3.7489,3.7494,3.7505,3.7503,3.7511,3.7436,3.7419,3.75,3.75,3.75,3.75,3.75,3.75,3.6751,3.6827,3.6852,3.695,3.6989,3.706,3.7094,3.7139,3.7181,3.7269,3.7323,3.7354,3.7405,3.7475,3.7535,3.7547,3.7571,3.7582,3.7595,3.7524,3.7516,3.7508,3.7492,3.7587,3.7587,3.7665,3.7666,3.7666]}]]